Location: Newark
(16.3678°N, 77.8722°E)
Time: 03:08:04
(UTC+00:00)

S-56A Canister/Altair - Pass Details

Date: 12 December 2019
Orbit: 634 x 2498 km, 38.9° (Epoch: 17 January)

Event Time Altitude Azimuth Distance (km) Brightness Sun altitude
Rises 11:18:26 0° 307° (NW) 5,941 12.4 11.8°
Reaches altitude 10° 11:22:39 10° 308° (NW) 4,751 11.9 10.9°
Maximum altitude 11:35:28 89° 40° (NE) 1,673 9.4 8.2°
Drops below altitude 10° 11:43:50 10° 128° (SE) 3,225 10.5 6.4°
Sets 11:46:11 0° 128° (SE) 3,983 10.9 5.9°
